User: anonymous   Login
Location: Caltech
(34.1382°N, 118.1253°W)
Time: 12:45:16
(UTC-08:00)
Language:

Oscar 10/S400 - Orbit

View from above orbital plane
View from above orbital plane
View from above satellite
View from above satellite

Ground track
Ground track

The orbit data is extracted from the following two-line orbital elements,

1 14129U 83058B   14354.56561713  .00000015  00000-0  00000+0 0  2473
2 14129 025.9224 184.1881 6056663 056.7139 355.5883 02.05871221209081
Epoch (UTC): 20 December 2014 13:34:29
Eccentricity: 0.6056663
inclination: 25.9224°
perigee height: 3914 km
apogee height: 35532 km
right ascension of ascending node: 184.1881°
argument of perigee: 56.7139°
revolutions per day: 2.05871221
mean anomaly at epoch: 355.5883°
orbit number at epoch: 20908

The dashed part of the orbit path shows where the satellite is in the earth's shadow,  

DLR